Weather History for KBEH - October, 2012

Change the Weather History Date:

Thursday, October 4, 2012

  Actual Average Record
Temperature  
Mean Temperature 68 °F -  
Max Temperature 79 °F 66 °F 86 °F (1951)
Min Temperature 57 °F 46 °F 27 °F (1989)
Cooling Degree Days 2    
Growing Degree Days 18 (Base 50)    
Moisture  
Dew Point 56 °F    
Average Humidity 79    
Maximum Humidity 97    
Minimum Humidity 43    
Precipitation  
Precipitation 0.04 in - - ()
Sea Level Pressure  
Sea Level Pressure 30.04 in    
Wind  
Wind Speed 7 mph (SW)    
Max Wind Speed 17 mph    
Max Gust Speed 26 mph    
Visibility 8 miles    
Events Rain    
Averages and records for this station are not official NWS values.
T = Trace of Precipitation, MM = Missing Value Source: NWS Daily Summary

Daily Weather History Graph

Daily Weather History Graph

Search for Another Location

Airport or City:

Trip Planner

Search our weather history database for the weather conditions in past years. The results will help you decide how hot, cold, wet, or windy it might be!

Date:

Astronomy

Oct. 04, 2012 Rise Set
Actual Time 7:46 AM EDT 7:21 PM EDT
Civil Twilight 7:18 AM EDT 7:49 PM EDT
Nautical Twilight 6:46 AM EDT 8:21 PM EDT
Astronomical Twilight 6:13 AM EDT 8:54 PM EDT
Moon 9:51 PM EDT (10/4) 12:07 PM EDT (10/4)
Length of Visible Light 12h 30m
Length of Day
11h 34m
Waning Gibbous, 82% of the Moon is Illuminated
Oct 4
Waning Gibbous
Oct 8
Last Quarter
Oct 15
New
Oct 21
First Quarter
Oct 29
Full

Hourly Weather History & Observations

Time (EDT) Temp. Dew Point Humidity Pressure Visibility Wind Dir Wind Speed Gust Speed Precip Events Conditions
12:53 AM 59.0 °F 57.9 °F 96% 30.04 in 4.0 mi South 4.6 mph - N/A   Overcast
1:53 AM 59.0 °F 57.9 °F 96% 30.03 in 4.0 mi South 4.6 mph - 0.01 in   Overcast
2:53 AM 57.9 °F 57.0 °F 97% 30.04 in 4.0 mi South 3.5 mph - N/A   Overcast
3:53 AM 57.9 °F 57.0 °F 97% 30.04 in 5.0 mi SSW 3.5 mph - N/A   Scattered Clouds
4:53 AM 57.9 °F 57.0 °F 97% 30.04 in 4.0 mi SSW 5.8 mph - N/A   Overcast
5:53 AM 59.0 °F 57.9 °F 96% 30.05 in 5.0 mi SW 5.8 mph - 0.03 in Rain Light Rain
6:53 AM 57.9 °F 57.0 °F 97% 30.06 in 8.0 mi SSW 4.6 mph - 0.00 in   Overcast
7:53 AM 57.0 °F 55.0 °F 93% 30.06 in 7.0 mi South 3.5 mph - N/A   Overcast
8:53 AM 57.0 °F 55.0 °F 93% 30.06 in 7.0 mi South 4.6 mph - N/A   Clear
9:53 AM 59.0 °F 55.0 °F 87% 30.07 in 10.0 mi South 5.8 mph - N/A   Partly Cloudy
10:53 AM 64.0 °F 57.0 °F 78% 30.07 in 10.0 mi South 6.9 mph - N/A   Scattered Clouds
11:53 AM 69.1 °F 57.9 °F 68% 30.05 in 10.0 mi SSW 6.9 mph - N/A   Clear
12:53 PM 73.0 °F 57.0 °F 57% 30.05 in 10.0 mi SSW 8.1 mph 17.3 mph N/A   Clear
1:53 PM 75.9 °F 52.0 °F 43% 30.02 in 10.0 mi SSW 13.8 mph 24.2 mph N/A   Clear
2:53 PM 75.9 °F 52.0 °F 43% 29.99 in 10.0 mi SSW 13.8 mph 26.5 mph N/A   Clear
3:53 PM 78.1 °F 54.0 °F 43% 29.98 in 10.0 mi SSW 13.8 mph 24.2 mph N/A   Clear
4:53 PM 78.1 °F 54.0 °F 43% 29.97 in 10.0 mi SW 16.1 mph 25.3 mph N/A   Mostly Cloudy
6:53 PM 69.1 °F 60.1 °F 73% 29.99 in 10.0 mi West 12.7 mph - N/A   Overcast
7:53 PM 64.0 °F 57.0 °F 78% 30.04 in 10.0 mi West 17.3 mph 26.5 mph N/A   Overcast
9:23 PM 59.0 °F 57.2 °F 94% 30.05 in 10.0 mi West 12.7 mph - 0.00 in   Overcast
9:53 PM 59.0 °F 55.9 °F 90% 30.05 in 10.0 mi West 13.8 mph - 0.00 in   Overcast
10:53 PM 57.0 °F 51.1 °F 81% 30.07 in 10.0 mi West 16.1 mph 21.9 mph N/A   Overcast
11:53 PM 57.0 °F 50.0 °F 77% 30.08 in 10.0 mi WNW 10.4 mph 19.6 mph 0.00 in   Overcast